CDT,Max TemperatureF,Mean TemperatureF,Min TemperatureF,Max Dew PointF,MeanDew PointF,Min DewpointF,Max Humidity, Mean Humidity, Min Humidity, Max Sea Level PressureIn, Mean Sea Level PressureIn, Min Sea Level PressureIn, Max VisibilityMiles, Mean VisibilityMiles, Min VisibilityMiles, Max Wind SpeedMPH, Mean Wind SpeedMPH, Max Gust SpeedMPH,PrecipitationIn, CloudCover, Events, WindDirDegrees
2014-3-1,22,11,0,16,3,-6,87,77,66,30.49,30.32,30.10,10,6,0,22,16,26,0.21,8,Snow,8
2014-3-2,2,-2,-6,-6,-13,-19,79,60,41,30.61,30.54,30.41,10,8,1,22,14,29,0.04,4,Snow,1
2014-3-3,15,4,-8,0,-8,-15,71,59,46,30.61,30.49,30.31,10,10,10,16,7,21,0.00,1,,152
2014-3-4,32,19,6,18,8,-2,69,56,43,30.28,30.15,30.06,10,10,10,13,7,16,0.00,2,,150
2014-3-5,27,25,22,22,19,16,88,78,68,30.36,30.26,30.12,10,5,0,16,11,22,0.12,7,Fog-Snow,57
2014-3-6,36,27,18,27,22,15,92,81,70,30.34,30.17,29.97,9,6,3,13,7,18,0.00,4,,135
2014-3-7,50,38,26,38,29,21,85,75,65,30.10,29.96,29.88,10,7,4,22,12,28,0.00,4,,319
2014-3-8,38,31,24,25,22,20,88,74,59,30.35,30.27,30.11,10,10,9,18,10,25,0.00,5,,352
2014-3-9,57,39,21,33,27,18,92,65,38,30.33,30.08,29.86,10,10,9,29,14,36,0.00,0,,209
2014-3-10,69,53,36,39,33,28,75,53,30,29.86,29.76,29.67,10,10,10,16,8,20,0.00,0,,208
2014-3-11,56,45,33,38,33,30,89,68,47,29.94,29.71,29.54,10,8,0,38,14,49,0.22,4,Fog-Rain-Snow-Thunderstorm,40
2014-3-12,41,34,26,29,25,21,82,68,54,30.17,30.11,29.95,10,10,10,23,10,30,0.00,3,,338
2014-3-13,62,44,28,36,29,23,85,60,32,30.13,29.97,29.76,10,10,10,17,9,,0.00,1,,194
2014-3-14,56,47,37,31,25,20,57,42,26,29.99,29.84,29.67,10,10,10,31,15,39,0.00,0,,271
2014-3-15,62,46,30,34,28,19,92,62,32,30.15,30.00,29.89,10,8,1,33,14,41,0.09,2,Snow,73
2014-3-16,36,29,21,29,21,13,92,68,44,30.36,30.21,30.13,10,7,1,24,13,33,0.04,6,Snow,37
2014-3-17,45,32,19,24,19,14,77,59,41,30.12,29.82,29.61,10,10,10,21,12,27,0.00,0,,178
2014-3-18,55,45,35,36,31,22,70,58,46,29.63,29.56,29.49,10,10,10,20,12,27,0.00,3,,148
2014-3-19,47,40,32,37,28,24,89,66,42,30.10,29.94,29.63,10,9,5,25,15,32,T,6,,304
2014-3-20,63,45,27,32,27,23,72,50,27,30.07,29.97,29.83,10,10,10,15,7,22,0.00,1,,73
2014-3-21,62,47,31,33,29,23,82,55,27,30.16,29.90,29.80,10,10,10,29,14,35,0.00,0,,3
2014-3-22,38,30,22,22,12,6,75,51,27,30.50,30.34,30.18,10,10,10,21,14,29,0.00,2,,355
2014-3-23,36,26,15,12,7,2,74,50,26,30.56,30.48,30.37,10,10,10,15,8,20,0.00,1,,21
2014-3-24,35,28,21,27,21,10,92,71,50,30.39,30.25,30.17,10,8,2,17,8,21,0.02,7,Snow,244
2014-3-25,35,28,21,20,10,3,88,58,28,30.39,30.30,30.23,10,10,10,26,11,35,0.00,1,,312
2014-3-26,56,39,21,38,19,5,82,54,26,30.25,29.99,29.76,10,10,10,38,17,49,0.03,4,Rain,170
2014-3-27,58,46,34,54,43,31,100,91,82,29.76,29.48,29.27,10,5,2,35,18,43,0.30,8,Rain-Thunderstorm,174
2014-3-28,40,37,33,31,30,29,89,80,70,30.22,30.04,29.79,10,10,9,18,8,24,0.00,8,,359
2014-3-29,53,42,30,29,26,22,92,64,35,30.30,30.24,30.19,10,9,7,14,7,18,0.00,3,,1
2014-3-30,71,54,37,33,30,28,76,49,22,30.17,29.97,29.79,10,10,8,29,15,37,0.00,0,,175
2014-3-31,78,54,29,43,35,15,71,45,18,29.89,29.65,29.47,10,10,10,37,23,46,0.01,1,Rain-Thunderstorm,198